WA0RTU Weather Reports


time (UTC)temp
C
wind
direction
speed
KPH
gust
KPH
rain 1hr
cm
rain 24hr
cm
rain mn
cm
humidity
%
barometer
mb
20260508022306 17 132 0.0 3.2 0.00 0.00 0.00 47 1009.5
20260508021802 17 127 3.2 3.2 0.00 0.00 0.00 46 1009.5
20260508021302 18 159 0.0 0.0 0.00 0.00 0.00 45 1009.1
20260508020801 18 160 0.0 3.2 0.00 0.00 0.00 44 1009.1
20260508020301 18 202 0.0 3.2 0.00 0.00 0.00 43 1009.1
20260508015728 18 55 0.0 4.8 0.00 0.00 0.00 43 1009.1
20260508015227 18 265 1.6 4.8 0.00 0.00 0.00 42 1009.1
20260508014727 18 248 1.6 3.2 0.00 0.00 0.00 42 1009.1
20260508014226 18 137 0.0 3.2 0.00 0.00 0.00 42 1008.8
20260508013726 18 171 0.0 8.0 0.00 0.00 0.00 42 1008.8
20260508013225 19 223 3.2 8.0 0.00 0.00 0.00 42 1008.8
20260508012653 19 153 1.6 1.6 0.00 0.00 0.00 41 1008.8
20260508012152 20 170 0.0 1.6 0.00 0.00 0.00 40 1008.8
20260508011652 20 210 1.6 1.6 0.00 0.00 0.00 39 1008.5
20260508011151 20 263 1.6 3.2 0.00 0.00 0.00 38 1008.5
20260508010650 21 219 3.2 8.0 0.00 0.00 0.00 37 1008.5
20260508010150 21 265 1.6 9.7 0.00 0.00 0.00 36 1008.5
20260508005649 21 229 1.6 9.7 0.00 0.00 0.00 35 1008.5
20260508005149 22 234 3.2 8.0 0.00 0.00 0.00 35 1008.5
20260508004617 22 235 3.2 11.3 0.00 0.00 0.00 35 1008.5
20260508004116 22 234 3.2 11.3 0.00 0.00 0.00 34 1008.5
20260508003545 22 240 6.4 11.3 0.00 0.00 0.00 33 1008.5
20260508003044 22 233 3.2 11.3 0.00 0.00 0.00 33 1008.5
20260508002544 22 243 3.2 11.3 0.00 0.00 0.00 34 1008.5
20260508002012 22 203 4.8 17.7 0.00 0.00 0.00 32 1008.5
20260508001511 22 235 11.3 17.7 0.00 0.00 0.00 32 1008.5
20260508001011 22 233 4.8 12.9 0.00 0.00 0.00 32 1008.5
20260508000510 22 250 4.8 17.7 0.00 0.00 0.00 33 1008.5
20260508000009 22 247 4.8 19.3 0.00 0.00 0.00 32 1008.8
20260507235438 22 250 3.2 19.3 0.00 0.00 0.00 34 1008.8
20260507234937 22 233 8.0 17.7 0.00 0.00 0.00 31 1008.8
20260507234436 22 251 6.4 17.7 0.00 0.00 0.00 33 1008.8
20260507233936 22 238 8.0 17.7 0.00 0.00 0.00 32 1009.1
20260507233435 22 232 8.0 17.7 0.00 0.00 0.00 31 1009.1
20260507232934 22 227 3.2 19.3 0.00 0.00 0.00 32 1009.1
20260507232434 22 230 9.7 19.3 0.00 0.00 0.00 32 1009.1
20260507231902 22 235 6.4 19.3 0.00 0.00 0.00 31 1009.1
20260507231401 22 251 12.9 19.3 0.00 0.00 0.00 31 1009.1
20260507230901 22 238 6.4 22.5 0.00 0.00 0.00 32 1009.1
20260507230400 22 241 8.0 22.5 0.00 0.00 0.00 31 1009.1
20260507225900 22 228 9.7 17.7 0.00 0.00 0.00 31 1009.1
20260507225359 22 243 6.4 19.3 0.00 0.00 0.00 32 1009.5
20260507224859 22 241 9.7 19.3 0.00 0.00 0.00 31 1009.5
20260507224358 22 235 11.3 17.7 0.00 0.00 0.00 33 1009.5
20260507223857 22 244 9.7 19.3 0.00 0.00 0.00 32 1009.5
20260507223325 22 234 11.3 19.3 0.00 0.00 0.00 31 1009.5
20260507222754 22 242 8.0 22.5 0.00 0.00 0.00 32 1009.5
20260507222222 22 227 8.0 22.5 0.00 0.00 0.00 33 1009.5
20260507221721 22 227 4.8 20.9 0.00 0.00 0.00 33 1009.8
20260507221220 22 236 12.9 24.1 0.00 0.00 0.00 32 1009.8
20260507220720 22 258 12.9 24.1 0.00 0.00 0.00 32 1009.8
20260507220219 22 229 11.3 19.3 0.00 0.00 0.00 33 1010.2
20260507215718 22 262 9.7 19.3 0.00 0.00 0.00 32 1010.2
20260507215218 22 245 6.4 24.1 0.00 0.00 0.00 34 1009.8
20260507214717 22 236 9.7 24.1 0.00 0.00 0.00 34 1010.2
20260507214216 22 238 9.7 19.3 0.00 0.00 0.00 34 1010.2
20260507213715 22 255 9.7 22.5 0.00 0.00 0.00 35 1010.2
20260507213144 22 251 12.9 22.5 0.00 0.00 0.00 35 1010.5
20260507212643 22 246 6.4 22.5 0.00 0.00 0.00 35 1010.5
20260507212111 22 237 12.9 22.5 0.00 0.00 0.00 35 1010.5
20260507211610 22 251 6.4 19.3 0.00 0.00 0.00 36 1010.5
20260507211110 22 249 9.7 24.1 0.00 0.00 0.00 34 1010.5
20260507210609 21 239 8.0 24.1 0.00 0.00 0.00 34 1010.5
20260507210108 21 249 9.7 25.7 0.00 0.00 0.00 35 1010.8
20260507205536 21 239 14.5 25.7 0.00 0.00 0.00 33 1010.8
20260507205036 21 251 4.8 24.1 0.00 0.00 0.00 34 1010.8
20260507204535 21 239 12.9 24.1 0.00 0.00 0.00 34 1010.8
20260507204034 21 244 11.3 22.5 0.00 0.00 0.00 34 1010.8
20260507203502 21 223 9.7 22.5 0.00 0.00 0.00 34 1010.8
20260507203002 22 259 12.9 22.5 0.00 0.00 0.00 34 1011.2
20260507202501 21 256 8.0 29.0 0.00 0.00 0.00 36 1011.2
20260507202000 21 230 9.7 29.0 0.00 0.00 0.00 34 1011.2
20260507201500 21 244 11.3 20.9 0.00 0.00 0.00 36 1011.2
20260507200928 21 235 9.7 20.9 0.00 0.00 0.00 35 1011.2
20260507200428 21 238 11.3 20.9 0.00 0.00 0.00 34 1011.2
20260507195856 21 244 6.4 20.9 0.00 0.00 0.00 37 1011.5
20260507195355 21 255 11.3 20.9 0.00 0.00 0.00 35 1011.5
20260507194854 21 163 6.4 20.9 0.00 0.00 0.00 36 1011.5
20260507194354 21 238 12.9 19.3 0.00 0.00 0.00 36 1011.9
20260507193822 21 240 8.0 19.3 0.00 0.00 0.00 37 1011.9
20260507193321 21 221 8.0 25.7 0.00 0.00 0.00 36 1011.9
20260507192821 21 251 14.5 25.7 0.00 0.00 0.00 36 1011.9
20260507192320 20 254 8.0 22.5 0.00 0.00 0.00 36 1011.9
20260507191819 21 251 16.1 29.0 0.00 0.00 0.00 36 1012.2
20260507191319 21 247 16.1 33.8 0.00 0.00 0.00 35 1011.9
20260507190747 20 234 14.5 33.8 0.00 0.00 0.00 35 1012.2
20260507190246 20 231 12.9 20.9 0.00 0.00 0.00 37 1012.2
20260507185745 20 236 11.3 20.9 0.00 0.00 0.00 38 1012.2
20260507185245 20 227 9.7 20.9 0.00 0.00 0.00 37 1012.2
20260507184744 20 245 12.9 24.1 0.00 0.00 0.00 37 1012.2
20260507184243 20 233 8.0 24.1 0.00 0.00 0.00 37 1012.5
20260507183742 20 251 4.8 20.9 0.00 0.00 0.00 38 1012.5
20260507183242 20 232 6.4 20.9 0.00 0.00 0.00 39 1012.5
20260507182741 20 227 12.9 25.7 0.00 0.00 0.00 38 1012.5
20260507182240 20 260 16.1 25.7 0.00 0.00 0.00 38 1012.5
20260507181740 20 233 11.3 22.5 0.00 0.00 0.00 38 1012.9
20260507181239 19 247 11.3 24.1 0.00 0.00 0.00 39 1012.9
20260507180709 19 243 9.7 24.1 0.00 0.00 0.00 39 1013.2
20260507180207 19 261 16.1 24.1 0.00 0.00 0.00 37 1013.2
20260507175707 19 264 16.1 24.1 0.00 0.00 0.00 39 1013.2
20260507175135 19 254 16.1 20.9 0.00 0.00 0.00 40 1013.5
20260507174634 19 232 11.3 24.1 0.00 0.00 0.00 39 1013.5
20260507174103 18 244 9.7 24.1 0.00 0.00 0.00 40 1013.5
20260507173602 18 225 11.3 20.9 0.00 0.00 0.00 41 1013.9
20260507173101 18 253 11.3 22.5 0.00 0.00 0.00 41 1013.9
20260507172601 18 227 14.5 22.5 0.00 0.00 0.00 42 1013.9
20260507172029 18 232 9.7 20.9 0.00 0.00 0.00 42 1013.9
20260507171529 18 233 11.3 20.9 0.00 0.00 0.00 40 1013.9
20260507171028 18 241 8.0 25.7 0.00 0.00 0.00 41 1013.9
20260507170528 18 234 12.9 30.6 0.00 0.00 0.00 42 1014.2
20260507170027 18 253 16.1 30.6 0.00 0.00 0.00 40 1013.9
20260507165527 18 251 12.9 25.7 0.00 0.00 0.00 41 1014.2
20260507164955 18 274 14.5 25.7 0.00 0.00 0.00 42 1014.2
20260507164454 18 254 11.3 20.9 0.00 0.00 0.00 42 1014.2
20260507163954 18 248 12.9 25.7 0.00 0.00 0.00 43 1014.2
20260507163453 17 251 14.5 25.7 0.00 0.00 0.00 42 1014.6
20260507162953 18 264 12.9 22.5 0.00 0.00 0.00 43 1014.6
20260507162421 17 259 12.9 30.6 0.00 0.00 0.00 44 1014.6
20260507161920 17 250 11.3 30.6 0.00 0.00 0.00 44 1014.9
20260507161420 17 260 12.9 29.0 0.00 0.00 0.00 44 1014.6
20260507160919 17 261 16.1 29.0 0.00 0.00 0.00 43 1014.9
20260507160419 17 254 17.7 25.7 0.00 0.00 0.00 42 1014.9
20260507155918 17 244 12.9 25.7 0.00 0.00 0.00 43 1014.9
20260507155417 17 262 12.9 25.7 0.00 0.00 0.00 44 1014.9
20260507154845 17 255 12.9 29.0 0.00 0.00 0.00 43 1014.9
20260507154314 17 242 14.5 29.0 0.00 0.00 0.00 44 1015.2
20260507153813 17 269 12.9 24.1 0.00 0.00 0.00 45 1014.9
20260507153312 17 253 16.1 24.1 0.00 0.00 0.00 44 1015.2
20260507152812 16 261 12.9 29.0 0.00 0.00 0.00 46 1015.2
20260507152311 16 260 14.5 29.0 0.00 0.00 0.00 45 1015.2
20260507151810 16 258 14.5 33.8 0.00 0.00 0.00 47 1015.2
20260507151239 16 255 16.1 33.8 0.00 0.00 0.00 47 1015.2
20260507150738 16 236 9.7 22.5 0.00 0.00 0.00 49 1015.6
20260507150135 15 247 11.3 20.9 0.00 0.00 0.00 50 1015.6
20260507145634 15 267 8.0 17.7 0.00 0.00 0.00 50 1015.6
20260507145134 15 279 11.3 20.9 0.00 0.00 0.00 49 1015.6
20260507144633 15 240 14.5 32.2 0.00 0.00 0.00 49 1015.6
20260507144132 15 275 11.3 32.2 0.00 0.00 0.00 49 1015.9
20260507143632 15 258 12.9 29.0 0.00 0.00 0.00 50 1015.9
20260507143131 15 285 12.9 22.5 0.00 0.00 0.00 50 1015.9
20260507142630 14 267 6.4 19.3 0.00 0.00 0.00 54 1015.9
20260507142130 14 264 12.9 20.9 0.00 0.00 0.00 53 1015.9
20260507141629 14 268 6.4 20.9 0.00 0.00 0.00 55 1015.9
20260507141128 13 250 6.4 16.1 0.00 0.00 0.00 56 1015.9
20260507140628 13 260 9.7 19.3 0.00 0.00 0.00 56 1015.9
20260507140127 13 271 9.7 19.3 0.00 0.00 0.00 56 1015.9
20260507135626 13 296 8.0 14.5 0.00 0.00 0.00 56 1015.9
20260507135055 12 262 8.0 14.5 0.00 0.00 0.00 58 1015.9
20260507134554 12 267 8.0 19.3 0.00 0.00 0.00 58 1015.9
20260507133951 12 252 9.7 19.3 0.00 0.00 0.00 59 1015.6
20260507133451 12 248 9.7 14.5 0.00 0.00 0.00 59 1015.9
20260507132950 12 234 6.4 14.5 0.00 0.00 0.00 60 1015.6
20260507132449 11 242 6.4 14.5 0.00 0.00 0.00 61 1015.9
20260507131949 11 250 8.0 14.5 0.00 0.00 0.00 61 1015.9
20260507131448 11 229 6.4 12.9 0.00 0.00 0.00 62 1015.9
20260507130948 11 246 8.0 12.9 0.00 0.00 0.00 62 1015.9
20260507130447 11 239 6.4 12.9 0.00 0.00 0.00 63 1016.3
20260507125946 10 243 6.4 11.3 0.00 0.00 0.00 64 1015.9
20260507125312 10 232 3.2 11.3 0.00 0.00 0.00 65 1015.9
20260507124812 10 225 3.2 9.7 0.00 0.00 0.00 65 1015.9
20260507124209 10 247 3.2 9.7 0.00 0.00 0.00 66 1015.9
20260507123708 9 227 3.2 9.7 0.00 0.00 0.00 66 1015.9
20260507123208 9 239 1.6 9.7 0.00 0.00 0.00 67 1015.9
20260507122636 9 229 3.2 9.7 0.00 0.00 0.00 67 1015.9
20260507122136 8 228 3.2 6.4 0.00 0.00 0.00 68 1016.3
20260507121532 8 233 1.6 8.0 0.00 0.00 0.00 68 1016.3
20260507121032 8 219 4.8 8.0 0.00 0.00 0.00 68 1015.9
20260507120531 8 225 0.0 1.6 0.00 0.00 0.00 69 1016.3
20260507120000 8 236 1.6 1.6 0.00 0.00 0.00 69 1015.9
20260507115459 8 217 1.6 3.2 0.00 0.00 0.00 69 1015.9
20260507114958 8 244 1.6 4.8 0.00 0.00 0.00 69 1015.9
20260507114458 8 217 3.2 4.8 0.00 0.00 0.00 68 1015.9
20260507113957 8 258 0.0 3.2 0.00 0.00 0.00 68 1015.9
20260507113456 8 233 1.6 3.2 0.00 0.00 0.00 68 1015.9
20260507112956 8 224 1.6 3.2 0.00 0.00 0.00 68 1015.9
20260507112455 8 234 0.0 6.4 0.00 0.00 0.00 68 1015.9
20260507111955 7 215 0.0 6.4 0.00 0.00 0.00 68 1015.9
20260507111454 7 232 1.6 1.6 0.00 0.00 0.00 68 1015.9
20260507110954 7 221 0.0 1.6 0.00 0.00 0.00 67 1015.9
20260507110453 7 209 0.0 0.0 0.00 0.00 0.00 67 1015.9
20260507105922 8 202 0.0 1.6 0.00 0.00 0.00 66 1015.9
20260507105421 8 202 0.0 1.6 0.00 0.00 0.00 66 1015.9
20260507104920 8 217 0.0 6.4 0.00 0.00 0.00 66 1015.6
20260507104419 8 223 1.6 6.4 0.00 0.00 0.00 66 1015.6
20260507103919 8 213 0.0 1.6 0.00 0.00 0.00 66 1015.6
20260507103347 8 218 0.0 8.0 0.00 0.00 0.00 65 1015.6
20260507102846 8 245 1.6 8.0 0.00 0.00 0.00 65 1015.9
20260507102346 8 234 3.2 6.4 0.00 0.00 0.00 66 1015.9
20260507101845 8 294 0.0 1.6 0.00 0.00 0.00 65 1015.9
20260507101344 8 231 1.6 1.6 0.00 0.00 0.00 65 1015.9
20260507100843 8 218 1.6 1.6 0.00 0.00 0.00 65 1015.9
20260507100343 8 218 0.0 1.6 0.00 0.00 0.00 64 1015.9
20260507095811 8 241 1.6 1.6 0.00 0.00 0.00 64 1016.3
20260507095310 8 239 1.6 3.2 0.00 0.00 0.00 63 1016.3
20260507094809 8 217 3.2 3.2 0.00 0.00 0.00 63 1016.3
20260507094308 8 204 1.6 4.8 0.00 0.00 0.00 63 1016.3
20260507093808 8 228 1.6 6.4 0.00 0.00 0.00 63 1016.3
20260507093236 8 232 1.6 6.4 0.00 0.00 0.00 62 1016.3
20260507092704 8 230 1.6 6.4 0.00 0.00 0.00 62 1016.3
20260507092203 8 238 0.0 1.6 0.00 0.00 0.00 61 1016.3
20260507091703 8 225 1.6 3.2 0.00 0.00 0.00 61 1016.3
20260507091202 8 218 1.6 3.2 0.00 0.00 0.00 61 1016.3
20260507090702 8 237 1.6 1.6 0.00 0.00 0.00 61 1016.3
20260507090201 8 223 1.6 3.2 0.00 0.00 0.00 60 1016.3
20260507085701 8 238 0.0 3.2 0.00 0.00 0.00 60 1016.6
20260507085200 8 241 1.6 1.6 0.00 0.00 0.00 60 1016.6
20260507084659 8 246 0.0 1.6 0.00 0.00 0.00 59 1016.3
20260507084159 8 246 1.6 1.6 0.00 0.00 0.00 59 1016.6
20260507083658 8 243 0.0 3.2 0.00 0.00 0.00 58 1016.6
20260507083157 8 246 1.6 3.2 0.00 0.00 0.00 58 1016.6
20260507082626 8 244 1.6 6.4 0.00 0.00 0.00 57 1016.6
20260507082125 8 244 3.2 6.4 0.00 0.00 0.00 57 1016.6
20260507081624 8 248 1.6 1.6 0.00 0.00 0.00 57 1016.6
20260507081124 9 248 1.6 3.2 0.00 0.00 0.00 56 1016.6
20260507080552 9 249 1.6 3.2 0.00 0.00 0.00 56 1016.6
20260507080021 9 238 3.2 4.8 0.00 0.00 0.00 55 1016.6
20260507075520 9 230 3.2 6.4 0.00 0.00 0.00 56 1016.6
20260507074948 9 241 1.6 6.4 0.00 0.00 0.00 55 1016.6
20260507074447 9 244 1.6 4.8 0.00 0.00 0.00 55 1016.6
20260507073946 9 244 1.6 6.4 0.00 0.00 0.00 55 1016.6
20260507073446 9 236 3.2 6.4 0.00 0.00 0.00 55 1016.9
20260507072945 9 257 1.6 3.2 0.00 0.00 0.00 56 1016.9
20260507072444 8 254 1.6 6.4 0.00 0.00 0.00 55 1016.9
20260507071913 8 264 3.2 3.2 0.00 0.00 0.00 55 1016.9
20260507071412 8 251 1.6 3.2 0.00 0.00 0.00 54 1016.9
20260507070911 8 254 0.0 1.6 0.00 0.00 0.00 54 1016.9
20260507070411 8 247 0.0 1.6 0.00 0.00 0.00 53 1016.9
20260507065839 8 227 0.0 1.6 0.00 0.00 0.00 54 1016.9
20260507065338 8 231 0.0 0.0 0.00 0.00 0.00 53 1016.9
20260507064837 8 231 0.0 1.6 0.00 0.00 0.00 53 1017.3
20260507064337 8 218 1.6 1.6 0.00 0.00 0.00 53 1017.3
20260507063836 8 240 1.6 1.6 0.00 0.00 0.00 55 1017.3
20260507063335 8 281 0.0 0.0 0.00 0.00 0.00 55 1017.3
20260507062835 7 281 0.0 0.0 0.00 0.00 0.00 56 1017.3
20260507062334 7 281 0.0 0.0 0.00 0.00 0.00 56 1017.3
20260507061833 7 281 0.0 0.0 0.00 0.00 0.00 60 1017.3
20260507061332 7 281 0.0 0.0 0.00 0.00 0.00 62 1017.6
20260507060801 8 281 0.0 0.0 0.00 0.00 0.00 61 1017.6
20260507060300 8 281 0.0 0.0 0.00 0.00 0.00 59 1017.6
20260507055759 8 281 0.0 0.0 0.00 0.00 0.00 64 1017.6
20260507055228 8 281 0.0 0.0 0.00 0.00 0.00 63 1017.6
20260507054656 8 281 0.0 0.0 0.00 0.00 0.00 62 1017.6
20260507054155 8 281 0.0 0.0 0.00 0.00 0.00 62 1017.6
20260507053624 8 281 0.0 0.0 0.00 0.00 0.00 60 1017.6
20260507053123 8 281 0.0 0.0 0.00 0.00 0.00 65 1017.6
20260507052622 9 281 0.0 0.0 0.00 0.00 0.00 60 1017.6
20260507052122 9 281 0.0 0.0 0.00 0.00 0.00 61 1017.6
20260507051621 9 281 0.0 0.0 0.00 0.00 0.00 61 1017.6
20260507051120 9 281 0.0 0.0 0.00 0.00 0.00 63 1017.6
20260507050619 9 281 0.0 0.0 0.00 0.00 0.00 64 1017.6
20260507050119 9 281 0.0 0.0 0.00 0.00 0.00 57 1017.6
20260507045547 9 281 0.0 0.0 0.00 0.00 0.00 53 1017.6
20260507045047 8 281 0.0 0.0 0.00 0.00 0.00 54 1017.6
20260507044546 8 281 0.0 0.0 0.00 0.00 0.00 55 1017.6
20260507044045 8 281 0.0 0.0 0.00 0.00 0.00 58 1017.6
20260507043545 8 281 0.0 0.0 0.00 0.00 0.00 64 1017.6
20260507043044 8 281 0.0 0.0 0.00 0.00 0.00 62 1017.9
20260507042544 8 281 0.0 0.0 0.00 0.00 0.00 67 1017.9
20260507042012 8 281 0.0 0.0 0.00 0.00 0.00 67 1017.9
20260507041512 8 281 0.0 0.0 0.00 0.00 0.00 64 1017.9
20260507041011 8 281 0.0 0.0 0.00 0.00 0.00 63 1017.9
20260507040510 8 281 0.0 0.0 0.00 0.00 0.00 59 1017.9
20260507040010 8 281 0.0 0.0 0.00 0.00 0.00 61 1017.9
20260507035509 8 281 0.0 0.0 0.00 0.00 0.00 65 1017.9
20260507035008 8 281 0.0 0.0 0.00 0.00 0.00 62 1017.9
20260507034508 8 281 0.0 0.0 0.00 0.00 0.00 63 1017.9
20260507034007 8 281 0.0 0.0 0.00 0.00 0.00 65 1017.9
20260507033506 8 281 0.0 0.0 0.00 0.00 0.00 64 1018.3
20260507033006 8 281 0.0 0.0 0.00 0.00 0.00 62 1017.9
20260507032505 9 281 0.0 0.0 0.00 0.00 0.00 63 1017.9
20260507032004 8 281 0.0 0.0 0.00 0.00 0.00 62 1017.9
20260507031433 8 281 0.0 0.0 0.00 0.00 0.00 59 1017.9
20260507030932 8 281 0.0 0.0 0.00 0.00 0.00 53 1017.9
20260507030432 8 281 0.0 0.0 0.00 0.00 0.00 61 1017.9
20260507025931 8 281 0.0 0.0 0.00 0.00 0.00 61 1017.9
20260507025430 8 281 0.0 0.0 0.00 0.00 0.00 59 1017.9
20260507024827 9 281 0.0 0.0 0.00 0.00 0.00 57 1017.9
20260507024327 9 281 0.0 0.0 0.00 0.00 0.00 50 1017.9
20260507023826 9 281 0.0 0.0 0.00 0.00 0.00 49 1017.9
20260507023326 10 281 0.0 0.0 0.00 0.00 0.00 53 1017.9